Location: Berville
(49.1893°N, 2.0748°E)
Time: 18:56:08
(UTC+00:00)

FENGYUN 1C DEB - Pass Details

Date: 04 March 2024
Orbit: 768 x 960 km, 99.0° (Epoch: 13 April)

Event Time Altitude Azimuth Distance (km) Brightness Sun altitude
Exits shadow 21:28:08 46° 289° (WNW) 1,266 ? -35.9°
Drops below altitude 10° 21:32:59 10° 335° (NNW) 2,651 ? -36.5°
Sets 21:35:29 0° 341° (NNW) 3,576 ? -36.8°
